Home   Weather   St. Petersburg   Past weeks

Flag for USA Past Weather in St. Petersburg, Florida, USA — Yesterday and Last 2 Weeks

Now
72 °F

Sunny.


Feels Like: 73 °F
Forecast: 60 / 78 °F
Wind: 6 mph from Northeast

Location: Whitted Airport

Current Time: Feb 20, 2017 at 1:18:45 pm

Latest Report: Feb 20, 2017 at 11:53 am


Visibility: 10 mi

Pressure: 30.12 "Hg

Humidity: 76%

Dew Point: 64 °F

Location of St. PetersburgLocation

Past Weather in St. Petersburg — Graph

°F

St. Petersburg Temperature Yesterday

Maximum temperature yesterday: 77 °F (at 4:53 pm)
Minimum temperature yesterday: 63 °F (at 11:53 pm)
Average temperature yesterday: 69 °F

High & Low Weather Summary for the Past Weeks

 TemperatureHumidityPressure
High79 °F (Feb 6, 3:53 pm)100% (Feb 8, 9:27 pm)30.40 "Hg (Feb 8, 9:27 pm)
Low54 °F (Feb 10, 7:53 am)34% (Feb 17, 12:53 pm)29.77 "Hg (Feb 15, 3:02 pm)
Average67 °F79%30.06 "Hg
* Reported Feb 5 11:23 am — Feb 20 11:53 am, St. Petersburg, Weather by CustomWeather, © 2017

Note: Actual official high and low records may vary slightly from our data, if they occured in-between our weather recording intervals... More about our weather records

Advertising

St. Petersburg Weather History for the Previous 24 Hours

Scroll right to see more
 ConditionsComfort  
Time TempWeatherWind HumidityBarometerVisibility
11:53 am
Mon, Feb 20
72 °FSunny.6 mph76%30.12 "Hg10 mi
10:53 am70 °FSunny.5 mph79%30.15 "Hg10 mi
9:53 am68 °FSunny.3 mph87%30.15 "Hg9 mi
8:53 am67 °FSunny.5 mph87%30.13 "Hg10 mi
7:53 am65 °FSunny.No wind91%30.11 "Hg10 mi
6:53 am64 °FClear.3 mph94%30.09 "Hg10 mi
5:53 am63 °FClear.5 mph97%30.08 "Hg10 mi
4:53 am64 °FClear.5 mph94%30.07 "Hg10 mi
3:53 am63 °FClear.3 mph93%30.07 "Hg10 mi
2:53 am64 °FClear.6 mph94%30.08 "Hg10 mi
1:53 am65 °FClear.12 mph91%30.09 "Hg10 mi
12:53 am63 °FClear.5 mph93%30.09 "Hg10 mi
11:53 pm
Sun, Feb 19
63 °FClear.No wind90%30.09 "Hg10 mi
10:53 pm64 °FClear.3 mph84%30.09 "Hg10 mi
9:53 pm65 °FClear.No wind85%30.08 "Hg10 mi
8:53 pm66 °FClear.5 mph84%30.06 "Hg10 mi
7:53 pm68 °FClear.8 mph76%30.04 "Hg10 mi
6:53 pm71 °FClear.7 mph63%30.04 "Hg10 mi
5:53 pm75 °FSunny.6 mph52%30.03 "Hg10 mi
4:53 pm77 °FSunny.8 mph45%30.03 "Hg10 mi
3:53 pm76 °FSunny.No wind64%30.01 "Hg10 mi
2:53 pm75 °FSunny.7 mph74%30.01 "Hg10 mi
1:53 pm75 °FScattered clouds.8 mph76%30.02 "Hg10 mi
1:06 pm73 °FBroken clouds.7 mph84%30.04 "Hg10 mi
Weather by CustomWeather, © 2017

See weather overviewHow to use our weather pages